Regional Weather Roundup
Issued by NWS

Home | Current Version | Previous Version | Text Only | Print | Product List | Glossary Off
Versions: 1 2 3 4 5 6 7 8 9 10 11 12 13 14 15 16 17 18 19 20 21 22 23 24 25 26 27 28 29 30 31 32 33 34 35 36 37 38 39 40 41 42 43 44 45 46 47 48 49 50

000
ASUS45 KBOU 051607
RWRCO

WEATHER ROUNDUP FOR COLORADO
NATIONAL WEATHER SERVICE DENVER/BOULDER CO
900 AM MST THU MAR 05 2015

NOTE: "FAIR" INDICATES FEW OR NO CLOUDS BELOW 12000 FEET WITH NO
SIGNIFICANT WEATHER AND/OR OBSTRUCTIONS TO VISIBILITY.

COZ001>005-013-030-031-051700-
...NORTHWEST COLORADO...

CITY           SKY/WX    TMP DP  RH WIND       PRES   REMARKS
CRAIG          SUNNY     13   4  67 W3        30.40R
HAYDEN         SUNNY     10   1  67 SE8       30.38R WCI  -1
MEEKER         SUNNY     17   6  62 SE7       30.40R WCI   8
MOUNT WERNER   NOT AVBL
STEAMBOAT SPGS SUNNY      7  -1  67 CALM      30.38R
WALDEN         MOSUNNY   12   1  62 S9        30.27R WCI   0
$$

COZ006>008-011-051700-
...WEST CENTRAL VALLEYS...

CITY           SKY/WX    TMP DP  RH WIND       PRES   REMARKS
GRAND JUNCTION SUNNY     29   9  43 E10       30.44R WCI  20
MONTROSE       SUNNY     24   9  52 SE7       30.46R WCI  16
EAGLE          SUNNY     12   3  67 CALM      30.47S
RIFLE          SUNNY     23   7  50 VRB5      30.46R WCI  17
DELTA          SUNNY     28  11  50 E5        30.47R WCI  23
NUCLA          SUNNY     27  10  50 CALM      30.46R
$$

COZ017>023-064>068-051700-
...SOUTHWEST COLORADO...

CITY           SKY/WX    TMP DP  RH WIND       PRES   REMARKS
DURANGO        SUNNY     19   6  57 CALM      30.39R
CORTEZ         SUNNY     26   9  48 CALM      30.41R
PAGOSA SPRINGS SUNNY     20   0  42 CALM      30.36S
TELLURIDE      SUNNY     17  -4  38 CALM      30.37R
WOLF CREEK PAS SUNNY     10   5  79 SW7       30.30R WCI   0
$$

COZ009-010-012-014-032>034-037-058>063-051700-
...CENTRAL COLORADO...

CITY           SKY/WX    TMP DP  RH WIND       PRES   REMARKS
ASPEN          SUNNY     14   1  56 W3        30.34S
BUENA VISTA    SUNNY     13  -1  54 CALM      30.28F
COPPER MTN     NOT AVBL
BERTHOUD PASS  FAIR       0  -6  78 NW43G52   30.09S WCI -30
COTTONWOOD PAS SUNNY     21 -13  21 S9        30.23R WCI  11
GUNNISON       SUNNY      0  -8  71 CALM      30.47R
KREMMLING      SUNNY      9   0  66 CALM      30.42R
LEADVILLE      MOSUNNY   15  -4  42 N7        30.26S WCI   5
SALIDA         SUNNY     26  -1  32 NW12      30.35S WCI  15
SUNLIGHT       SUNNY     14  10  85 CALM        N/A
WILKERSON PASS MOSUNNY   16  -4  41 W9G23     30.19R WCI   4
$$

COZ069>075-051700-
...SAN LUIS VALLEY/SANGRE DE CRISTO MOUNTAINS...

CITY           SKY/WX    TMP DP  RH WIND       PRES   REMARKS
ALAMOSA        SUNNY     19   3  49 SW5       30.37R WCI  12
LA VETA PASS   SUNNY     16  -6  38 MISG      30.20R
SAGUACHE       SUNNY     23   3  42 CALM      30.36R
$$

COZ035-036-038>040-051700-
...NORTHERN COLORADO FRONT RANGE...

CITY           SKY/WX    TMP DP  RH WIND       PRES   REMARKS
DENVER INTL AP MOSUNNY   29   7  39 SW12      30.18R WCI  19
DMNS CITY PARK   N/A     31   4  30 SW5       30.19R WCI  27
AURORA         NOT AVBL
FRONT RANGE AP NOT AVBL
ERIE MUNI ARPT MOSUNNY   17   9  72 CALM      30.20S
BOULDER MUN AP MOSUNNY   19   9  63 CALM      30.20R
CENTENNIAL     PTSUNNY   29   7  39 SE6       30.17S WCI  23
BROOMFIELD     PTSUNNY   21   9  58 VRB5      30.18R WCI  15
FORT COLLINS   PTSUNNY   12  10  92 CALM      30.23R
LONGMONT       PTSUNNY   20   9  61 CALM      30.23S
$$

COZ041-046-047-076>085-087-088-051700-
...PIKES PEAK/PALMER DIVIDE AND SOUTHERN FOOTHILLS...

CITY           SKY/WX    TMP DP  RH WIND       PRES   REMARKS
COLO. SPRINGS  MOSUNNY   24   5  44 N6        30.22R WCI  17
A. F. ACADEMY  SUNNY     16   7  68 N2        30.20R
ELLICOTT       NOT AVBL
FALCON         SUNNY     28  -4  25 S3        30.21S
FORT CARSON    NOT AVBL
LIMON          SUNNY     10   1  67 N6        30.24R WCI   0
MONUMENT HILL  SUNNY     27   1  33 S9        30.17R WCI  17
TRINIDAD       SUNNY     18  11  74 NW7       30.28R WCI   9
$$

COZ042>045-048>051-090-091-051700-
...NORTHEAST COLORADO...

CITY           SKY/WX    TMP DP  RH WIND       PRES   REMARKS
GREELEY ARPT   MOSUNNY   12   5  73 CALM      30.23R
AKRON          SUNNY     30   9  41 SW10      30.23R WCI  21
BURLINGTON     SUNNY     30  15  53 W13       30.29R WCI  20
WRAY           SUNNY     32  15  49 SW6       30.28S WCI  27
STERLING       SUNNY     23  18  80 SW8       30.26S WCI  14
HOLYOKE        NOT AVBL
FORT MORGAN    SUNNY     19  11  72 W3        30.25R
$$

COZ086-089-092>099-051700-
...SOUTHEAST COLORADO...

CITY           SKY/WX    TMP DP  RH WIND       PRES   REMARKS
PUEBLO         SUNNY     16  10  77 W6        30.30R WCI   7
LA JUNTA       SUNNY     20  12  71 SW8       30.34R WCI  10
LAMAR          SUNNY     24  13  62 W13       30.35S WCI  12
SPRINGFIELD      N/A     28  19  69 SW7       30.33S WCI  21
$$



USA.gov is the U.S. government's official web portal to all federal, state and local government web resources and services.